GFSMA_500_spd_129.txt.gz
Wind_Speed
33 29 22 22 23 22 22 17 17 17 20 22 23 23 15 13 20 22 24 16 20 21 22 20 20 20 18 19 18 22 23 14 5 6 8 11 9 9 9 7 5 7 7
32 31 22 23 23 20 22 17 16 20 20 17 18 23 24 11 16 24 20 18 20 20 21 20 22 21 21 20 22 22 20 7 7 8 8 11 10 10 9 8 6 8 9
33 31 22 23 25 18 21 20 20 17 16 19 26 25 26 10 19 26 20 20 20 21 23 24 23 22 21 23 21 18 10 9 9 9 12 11 9 10 10 9 9 10 12
33 30 22 23 25 19 20 21 21 24 21 23 24 21 25 15 20 25 22 23 22 25 25 25 28 29 22 26 19 15 10 10 10 11 11 10 11 12 13 12 13 12 14
32 28 23 23 26 22 21 21 21 22 28 24 28 24 25 19 20 25 24 25 25 25 25 26 26 22 25 22 18 11 13 13 13 13 13 12 12 14 14 15 15 16 18
32 27 24 23 26 25 22 23 23 22 23 21 27 29 24 16 19 22 24 26 25 26 26 25 26 25 20 15 11 15 15 16 16 15 14 12 12 13 14 17 21 21 24
30 28 25 24 26 25 23 23 24 20 21 27 20 31 25 21 19 19 23 24 26 27 26 24 21 18 16 16 16 17 17 19 16 15 15 13 16 16 18 24 27 26 25
28 28 25 27 26 25 23 23 24 23 24 25 26 29 30 26 26 25 22 18 25 28 26 25 25 22 21 20 19 19 19 18 18 17 15 18 18 19 23 25 25 26 28
29 30 26 28 27 27 23 23 25 25 26 27 30 28 37 34 29 25 22 23 25 29 25 28 27 23 24 23 23 21 20 22 22 20 18 21 23 23 26 26 26 27 29
30 31 26 28 29 28 25 23 24 25 27 29 30 33 30 38 32 28 25 25 25 26 27 30 28 29 27 24 25 22 23 26 25 24 23 23 25 27 28 29 30 30 32
29 28 27 30 30 29 27 25 24 27 27 29 28 34 31 38 36 29 27 23 27 27 32 33 34 33 27 26 27 28 29 29 28 27 26 31 32 29 30 33 31 32 34
26 28 28 29 28 29 27 26 27 28 30 33 31 38 33 38 39 31 30 29 24 36 39 38 38 32 30 30 28 29 30 30 31 31 33 34 31 31 33 34 35 38 36
26 26 29 28 26 29 29 28 29 29 30 33 35 28 34 38 39 36 33 34 28 38 38 36 35 32 31 28 30 30 31 32 34 36 37 34 34 35 36 36 38 37 36
27 27 30 27 26 30 30 28 28 30 29 29 35 34 37 36 39 42 37 37 35 37 39 34 34 30 32 31 31 33 33 36 37 37 38 40 37 37 37 36 36 36 38
28 29 29 29 29 29 29 30 30 30 30 29 32 29 41 42 39 41 38 38 39 37 39 35 32 31 32 35 36 36 35 37 37 40 41 39 39 40 40 40 38 39 34
27 30 31 31 30 29 28 30 30 29 28 27 24 29 35 44 39 42 43 39 36 36 39 34 34 37 39 39 38 38 35 39 39 39 37 37 39 42 42 40 39 36 36
26 27 31 30 30 28 28 29 27 28 27 27 22 33 38 42 44 45 49 47 40 39 39 39 39 40 40 45 35 34 36 36 38 38 39 39 39 36 37 39 35 36 40
28 28 32 32 30 29 29 30 26 26 25 24 21 25 37 43 48 48 49 49 43 43 43 42 43 41 33 31 32 34 33 35 41 40 37 39 40 42 37 35 38 41 45
30 28 30 32 31 31 29 29 27 26 26 22 24 16 29 41 41 45 49 49 45 45 43 42 43 42 35 30 31 33 33 34 34 36 36 40 37 35 37 40 42 45 48
29 30 30 33 32 32 29 30 27 27 27 25 23 22 17 38 42 48 48 49 49 46 43 38 43 35 30 32 31 31 32 34 35 35 35 35 36 40 42 43 45 46 47
29 31 31 32 33 31 31 32 28 28 27 27 27 26 24 22 36 41 47 46 45 44 39 39 37 32 32 26 30 29 30 34 34 32 32 36 41 43 45 45 44 46 51
32 34 32 33 34 31 31 32 27 28 28 27 29 31 26 26 28 35 38 40 44 43 39 39 36 25 22 32 32 31 31 34 31 32 37 38 43 46 46 45 48 52 55
36 35 34 35 35 32 32 32 28 28 30 27 27 27 34 31 34 31 36 36 42 38 39 37 34 36 29 33 36 32 30 32 34 37 40 43 45 44 46 50 55 58 62
38 37 35 37 36 34 32 31 29 28 30 23 22 27 24 27 34 33 35 34 36 36 36 38 40 37 36 34 36 31 34 36 40 42 43 46 45 48 52 56 59 63 68
40 38 37 39 38 37 33 32 30 28 28 21 22 21 20 26 31 31 32 33 30 31 34 38 32 31 31 30 31 33 38 40 41 45 46 48 50 53 57 61 64 66 67
38 36 39 40 41 40 35 34 30 28 27 21 20 16 16 25 30 39 39 36 32 31 31 33 37 33 31 31 38 42 40 42 46 50 50 49 53 56 59 63 65 66 67

GFSMA_500_spd_132.txt.gz
Wind_Speed
25 26 28 29 25 22 23 23 17 17 15 15 18 16 19 16 16 16 19 18 17 21 21 19 17 19 17 16 18 20 20 21 20 14 11 12 13 14 16 16 14 13 12
26 25 28 28 24 22 23 23 17 14 18 15 14 18 21 21 10 17 18 18 17 19 22 21 18 18 18 19 20 21 22 21 23 14 11 12 14 14 14 15 14 13 13
27 25 27 27 25 22 23 22 19 16 21 23 16 20 22 20 15 18 18 18 20 18 20 18 18 19 21 21 21 21 23 24 20 13 13 15 14 13 15 15 16 16 15
29 26 27 26 26 23 23 23 20 16 16 20 23 21 25 24 22 20 18 23 22 19 19 19 19 21 23 24 26 31 27 22 17 13 15 16 13 14 16 17 17 18 20
30 26 28 26 25 23 24 24 21 17 16 18 22 18 27 27 27 21 19 24 24 24 21 21 21 23 25 27 25 24 23 19 15 13 15 13 14 16 16 17 18 19 21
29 27 27 25 25 24 25 23 21 19 17 15 19 23 21 24 24 21 21 24 26 23 23 24 26 27 27 23 28 19 19 17 15 14 14 15 16 17 17 17 17 21 23
29 27 28 27 26 26 26 23 22 20 17 16 15 18 17 31 22 23 24 25 25 25 27 27 27 26 25 24 19 21 15 15 18 15 14 16 18 16 17 17 20 22 24
30 28 29 26 26 28 27 25 24 20 18 19 17 17 16 26 25 23 26 25 26 28 29 29 27 25 24 19 18 15 16 17 17 17 18 19 17 17 18 20 23 25 26
32 30 34 28 25 28 29 26 27 22 20 20 19 19 18 22 31 26 23 25 24 24 30 31 29 26 25 23 20 21 20 19 20 21 22 22 22 22 21 23 26 28 28
30 32 34 29 26 29 30 30 29 24 21 20 20 21 21 19 25 35 31 30 26 27 28 30 30 29 27 26 24 26 23 23 25 25 26 26 26 26 26 29 30 31 31
32 33 34 30 26 28 31 32 30 28 24 21 23 23 24 23 23 32 38 31 30 30 30 30 32 31 29 28 27 29 28 29 28 26 28 29 29 28 30 30 30 33 35
37 33 32 30 26 28 30 32 31 29 25 26 25 26 27 26 26 29 36 32 34 31 31 32 37 35 31 30 31 31 30 31 30 30 31 31 31 30 31 33 34 36 38
35 32 30 30 26 28 31 33 30 28 26 28 28 29 29 30 31 32 36 39 35 37 36 31 34 37 34 34 34 31 31 33 32 30 31 34 34 34 38 39 39 39 38
34 32 28 31 26 29 31 32 29 28 27 29 29 29 32 30 25 21 33 40 40 38 37 36 32 35 33 34 35 32 35 34 32 33 35 37 36 38 40 41 40 40 42
35 34 33 34 26 31 32 32 31 28 29 30 31 30 31 32 34 38 31 40 41 41 38 35 33 33 32 36 36 34 36 36 36 37 37 38 39 40 38 38 39 41 43
41 39 37 34 30 31 32 33 32 29 29 29 29 30 29 36 32 34 41 39 42 43 44 38 36 37 39 40 40 40 39 38 38 37 38 39 39 41 40 41 41 41 40
40 37 35 34 33 33 34 34 34 30 28 30 27 26 28 34 32 38 42 44 41 45 45 37 40 39 41 40 41 43 44 43 41 39 39 38 39 40 40 42 41 42 42
40 37 35 36 31 31 34 36 34 31 29 28 26 25 31 26 30 39 39 42 42 46 44 40 37 37 41 41 43 41 46 44 40 36 37 36 36 37 38 39 39 42 40
42 41 39 36 34 34 37 35 33 31 30 27 26 25 27 30 23 38 41 44 41 44 45 46 44 41 40 40 38 37 38 37 36 37 37 36 35 36 38 39 41 41 40
42 42 38 37 37 36 37 36 32 31 31 27 25 25 26 26 21 32 45 49 48 50 49 47 46 41 38 38 38 39 33 31 36 37 36 35 35 35 36 39 40 40 45
39 42 39 38 38 36 36 35 34 33 32 30 26 24 27 26 24 20 33 45 47 46 49 49 43 39 39 36 40 29 27 30 32 34 34 33 35 33 35 37 39 43 49
42 40 38 38 37 35 36 36 36 33 32 30 27 26 27 30 29 27 28 39 40 45 47 49 43 38 38 42 34 27 29 30 34 36 36 35 32 34 38 39 43 47 49
43 37 37 37 39 36 38 38 37 33 32 32 29 27 28 31 31 31 32 31 44 48 48 45 41 41 40 41 39 27 30 34 37 39 37 35 35 39 41 45 49 51 51
42 38 38 45 34 37 39 41 39 35 32 32 30 28 30 29 29 33 30 31 36 40 42 45 46 44 42 43 37 35 35 38 39 40 35 37 39 43 46 51 53 52 54
44 40 38 37 35 35 41 43 40 37 32 33 31 29 29 30 28 31 39 43 35 34 36 40 42 40 41 39 37 35 38 38 37 36 38 41 45 48 49 53 53 55 59
45 45 39 34 37 41 43 46 42 38 33 33 31 30 28 29 26 28 40 39 42 34 31 32 38 40 37 41 38 37 35 35 35 38 42 47 51 50 52 52 55 59 62

GFSMA_500_spd_135.txt.gz
Wind_Speed
29 27 25 26 25 23 25 19 19 21 21 16 19 16 17 19 25 21 22 19 18 21 19 18 19 20 19 19 20 20 19 19 19 22 21 17 22 23 14 15 19 18 19
31 29 26 26 25 23 24 20 18 21 20 19 22 17 15 15 18 20 21 17 19 20 20 19 19 20 20 20 21 20 21 18 19 21 19 18 14 14 14 18 19 18 18
33 31 28 27 26 24 24 21 17 20 20 18 20 22 15 18 17 16 17 16 19 19 18 21 20 19 21 20 23 23 22 20 21 21 22 20 13 13 17 17 17 18 19
36 32 30 28 28 23 24 21 19 19 20 18 18 18 20 19 20 20 21 16 21 20 19 18 17 19 22 22 24 24 24 26 27 25 23 16 14 16 17 18 17 18 20
37 34 32 30 30 23 23 22 21 20 19 20 19 16 17 19 23 23 22 19 23 22 23 19 20 20 22 25 25 25 26 30 33 27 20 17 15 17 17 16 17 19 19
38 37 34 31 30 23 23 26 24 21 19 21 19 13 17 18 20 27 32 22 24 25 24 22 24 23 26 25 27 29 28 25 18 22 17 14 14 15 16 18 19 19 19
38 37 35 32 30 25 26 28 23 22 21 21 19 15 10 7 18 21 27 22 23 24 27 26 26 27 26 26 28 25 17 14 17 19 14 14 15 16 19 14 18 19 22
40 38 36 32 30 27 28 28 26 24 23 23 20 18 15 13 13 25 25 23 21 24 26 28 29 27 28 29 30 21 19 18 23 21 16 17 18 18 16 19 19 22 24
41 41 37 36 32 29 29 30 32 27 28 23 22 19 19 16 17 19 24 23 25 26 29 30 29 29 32 30 27 21 23 23 23 20 20 21 22 20 20 22 22 23 26
41 40 38 36 32 29 27 32 32 32 30 25 23 21 21 18 16 16 28 29 26 26 27 26 29 32 35 31 27 27 23 22 23 24 24 23 23 23 24 25 26 27 28
42 39 39 36 34 32 31 32 34 31 30 27 26 24 20 21 20 16 21 31 35 31 27 27 31 33 35 34 29 29 26 27 27 27 26 26 26 25 27 28 30 30 32
46 41 38 39 36 34 31 32 35 33 30 29 28 29 25 22 23 22 25 26 30 37 32 36 35 34 36 34 31 30 31 30 28 29 31 29 29 28 28 30 31 34 36
45 39 39 40 37 35 34 32 33 33 30 30 29 29 29 25 25 27 28 29 30 33 39 36 33 34 35 35 33 32 34 32 31 32 33 32 32 30 31 33 35 36 39
44 41 41 41 39 36 35 31 35 31 31 31 31 32 30 28 29 27 29 34 35 35 36 37 35 35 35 31 36 36 35 35 35 34 35 35 34 35 36 36 37 39 39
44 45 47 41 42 38 36 31 32 32 32 33 31 32 30 29 30 30 28 30 34 35 37 44 40 36 35 31 34 38 38 37 37 38 37 38 39 38 38 40 41 41 40
41 42 44 44 43 39 36 32 34 34 36 34 33 32 30 31 29 28 31 32 32 44 42 42 41 39 37 33 34 42 39 40 42 43 43 42 40 41 39 40 42 41 38
41 42 42 42 40 41 37 36 36 34 35 35 35 32 32 31 27 30 29 30 42 39 42 47 43 43 43 40 40 42 42 43 46 47 46 44 41 38 37 40 41 39 38
45 43 44 42 41 41 40 40 36 36 37 37 35 34 31 31 30 29 33 37 42 42 40 43 43 45 46 43 44 45 44 43 45 48 46 46 46 42 40 43 41 37 39
44 46 43 41 42 43 40 42 39 40 40 37 36 35 33 31 29 31 36 37 43 43 47 45 42 43 47 44 44 42 44 44 44 35 38 39 37 36 45 43 42 39 42
49 49 47 45 44 43 41 42 41 40 39 36 38 37 33 32 28 32 32 32 35 37 45 45 45 42 46 48 48 45 39 31 29 31 30 31 28 38 41 41 39 39 42
53 53 46 47 48 46 43 43 41 42 42 41 40 37 35 33 30 28 32 32 33 40 46 43 45 43 46 45 46 43 36 30 31 32 28 27 33 37 40 40 42 40 37
46 51 49 48 48 47 42 43 45 44 45 43 40 38 36 34 31 29 29 35 30 38 41 41 49 48 47 48 44 35 35 32 31 33 34 34 33 38 40 42 43 39 38
41 45 51 50 44 44 45 50 50 44 44 42 41 37 37 34 33 30 29 32 35 32 34 40 42 45 44 43 43 37 37 36 32 29 33 35 39 41 44 46 43 41 42
39 43 46 52 50 45 49 54 44 44 41 42 40 38 37 36 34 31 30 31 34 31 32 33 38 40 42 44 46 45 42 43 36 41 39 43 45 46 48 44 42 43 47
40 41 44 48 54 49 48 54 41 43 41 41 41 40 39 36 34 31 31 30 34 37 35 31 36 36 39 43 42 47 49 47 43 41 41 48 51 51 45 41 44 47 51
39 40 45 46 52 51 45 56 52 46 44 43 41 41 40 35 33 32 30 31 38 33 39 39 40 38 44 44 46 45 42 43 42 44 42 43 39 39 40 44 48 50 54

GFSMA_500_spd_138.txt.gz
Wind_Speed
29 29 30 30 26 24 23 24 24 26 20 16 19 14 13 14 10 15 16 15 20 20 19 19 18 17 17 18 20 18 19 21 20 21 20 20 20 20 22 19 16 16 18
31 31 31 31 27 26 22 23 22 24 20 17 20 18 16 18 12 18 18 20 22 21 20 18 19 18 18 19 20 18 19 21 22 22 24 18 17 19 17 15 16 18 18
32 30 34 32 29 27 24 22 20 21 22 17 18 19 14 14 13 15 21 20 25 20 20 20 20 19 19 20 20 19 21 22 25 24 23 19 17 18 16 15 17 17 17
33 33 35 34 31 28 26 22 19 20 22 18 17 19 16 13 12 15 18 17 16 19 20 20 22 22 23 22 22 21 22 24 26 26 23 22 24 20 17 15 16 17 17
36 37 37 37 34 30 28 25 20 20 21 21 20 17 17 14 12 15 25 21 18 18 23 23 21 20 20 19 19 21 22 24 27 27 29 28 20 20 15 14 15 17 16
42 38 38 39 36 33 28 28 22 19 21 24 21 18 16 18 18 18 21 27 24 21 24 28 23 23 21 20 21 21 21 24 29 31 27 22 19 19 15 15 17 18 18
46 40 40 40 37 33 31 31 26 26 22 23 22 19 16 15 13 17 24 30 29 29 23 28 27 26 24 22 23 24 25 29 25 21 19 20 21 18 16 16 17 15 18
45 38 42 40 37 35 32 32 31 33 25 20 21 20 17 15 19 20 22 24 25 25 22 26 29 29 26 25 25 25 28 25 22 17 19 22 21 20 17 18 18 17 17
41 42 45 40 38 36 34 33 33 30 25 26 24 21 21 17 20 19 19 25 22 21 24 24 25 29 28 28 26 26 27 24 19 21 23 24 23 21 21 20 20 20 21
47 47 47 45 40 35 35 33 33 29 27 31 28 23 24 19 19 19 17 20 27 24 26 24 26 28 29 29 30 29 27 21 21 24 27 28 26 24 24 24 24 23 24
50 50 50 47 42 38 38 34 34 31 31 31 29 29 27 24 19 20 21 19 26 28 29 27 29 27 27 29 31 31 29 25 27 29 27 27 27 27 27 27 27 26 28
50 51 52 49 42 43 39 36 38 36 31 30 31 30 28 28 26 23 23 25 24 34 33 36 32 28 29 30 34 34 31 30 30 31 29 28 29 29 30 30 29 30 31
54 53 52 50 46 43 42 40 40 38 33 33 31 32 31 28 28 28 26 25 27 29 32 34 37 33 32 34 36 37 36 33 33 33 32 31 32 32 33 34 33 33 34
51 54 52 49 47 44 43 42 39 38 35 33 36 32 31 31 29 28 31 29 32 30 34 32 33 37 38 35 34 33 32 36 36 35 35 34 34 35 35 35 36 37 36
51 51 49 51 49 46 43 41 42 36 36 37 34 34 32 32 30 31 33 32 32 32 33 35 35 35 37 37 37 34 31 34 40 39 37 37 39 39 38 38 38 39 38
51 51 46 42 43 45 40 40 33 37 38 38 35 36 32 33 32 33 34 33 31 32 33 31 34 36 34 40 40 37 32 32 37 40 39 40 42 44 43 42 41 41 38
43 46 46 44 44 41 43 42 41 42 40 40 36 37 35 36 34 33 36 32 32 30 30 39 37 37 37 44 38 40 36 35 37 41 44 44 46 48 46 45 41 39 41
49 46 44 45 42 41 41 41 43 42 42 42 36 40 39 35 34 34 36 34 35 33 36 40 46 43 38 43 45 40 41 41 42 44 48 48 49 50 47 43 42 38 40
50 54 46 43 41 44 45 40 44 43 43 44 38 41 40 38 36 35 35 36 35 36 36 35 43 46 43 48 47 44 46 45 45 46 47 51 48 37 37 39 40 32 36
31 48 53 47 46 46 43 46 46 42 41 44 42 44 42 40 39 35 36 38 35 37 39 38 33 40 45 46 48 46 43 45 47 45 43 41 29 30 31 31 29 32 38
27 30 42 59 53 50 46 47 43 42 43 46 45 45 45 42 38 36 38 38 37 35 35 35 28 34 45 44 49 44 44 43 46 45 40 27 28 27 26 27 32 33 38
15 20 31 50 58 55 51 48 45 45 46 48 46 47 46 44 40 38 38 40 37 34 31 36 38 38 37 42 47 49 43 46 44 38 32 28 30 29 31 33 33 33 42
23 19 19 31 46 60 55 51 50 49 49 50 49 47 47 46 43 40 40 40 38 35 33 33 35 33 38 38 39 45 47 39 42 41 39 33 30 28 30 34 36 40 45
32 26 19 24 34 40 53 55 52 52 55 54 51 51 49 46 44 42 40 41 39 37 32 32 34 33 37 33 35 42 39 39 40 43 41 36 32 32 39 42 44 47 52
33 30 23 26 30 33 42 50 54 53 51 54 57 44 51 47 45 44 40 39 39 38 33 31 31 33 36 31 39 40 38 44 44 43 41 36 34 34 38 44 46 51 55
30 31 37 35 34 35 37 43 54 58 51 51 52 52 47 47 46 44 39 40 39 38 33 31 31 37 37 38 37 41 43 40 46 46 42 42 35 42 43 43 45 48 48